Index of /20260428/WXO-DD/model_gdps/15km/00/040
Name Last modified Size Description
Parent Directory -
20260428T00Z_MSC_GDPS_AirTemp_AGL-120m_LatLon0.15_PT040H.grib2 2026-04-28 03:59 914K
20260428T00Z_MSC_GDPS_AirTemp_AGL-2m_LatLon0.15_PT040H.grib2 2026-04-28 03:59 1.0M
20260428T00Z_MSC_GDPS_AirTemp_AGL-40m_LatLon0.15_PT040H.grib2 2026-04-28 03:59 816K
20260428T00Z_MSC_GDPS_AirTemp_AGL-80m_LatLon0.15_PT040H.grib2 2026-04-28 03:59 923K
20260428T00Z_MSC_GDPS_Albedo_Sfc_LatLon0.15_PT040H.grib2 2026-04-28 03:59 244K
20260428T00Z_MSC_GDPS_ConvectivePrecip-Accum_Sfc_LatLon0.15_PT040H.grib2 2026-04-28 03:59 2.8M
20260428T00Z_MSC_GDPS_DewPointDepression_AGL-2m_LatLon0.15_PT040H.grib2 2026-04-28 03:59 764K
20260428T00Z_MSC_GDPS_DewPoint_AGL-2m_LatLon0.15_PT040H.grib2 2026-04-28 03:59 612K
20260428T00Z_MSC_GDPS_DownwardLongwaveRadiationFlux-Accum_Sfc_LatLon0.15_PT040H.grib2 2026-04-28 03:59 744K
20260428T00Z_MSC_GDPS_DownwardShortwaveRadiationFlux-Accum_Sfc_LatLon0.15_PT040H.grib2 2026-04-28 03:59 1.0M
20260428T00Z_MSC_GDPS_FreezingRain-Accum1h_Sfc_LatLon0.15_PT040H.grib2 2026-04-28 03:59 51K
20260428T00Z_MSC_GDPS_FreezingRain-Accum_Sfc_LatLon0.15_PT040H.grib2 2026-04-28 03:59 240K
20260428T00Z_MSC_GDPS_IcePellets-Accum1h_Sfc_LatLon0.15_PT040H.grib2 2026-04-28 03:59 5.2K
20260428T00Z_MSC_GDPS_IcePellets-Accum_Sfc_LatLon0.15_PT040H.grib2 2026-04-28 03:59 55K
20260428T00Z_MSC_GDPS_LatentHeatNetFlux_Sfc_LatLon0.15_PT040H.grib2 2026-04-28 03:59 700K
20260428T00Z_MSC_GDPS_NetLongwaveRadiationFlux-Accum_Sfc_LatLon0.15_PT040H.grib2 2026-04-28 03:59 1.1M
20260428T00Z_MSC_GDPS_NetShortwaveRadiationFlux-Accum_Sfc_LatLon0.15_PT040H.grib2 2026-04-28 03:59 957K
20260428T00Z_MSC_GDPS_O3MixingRatio_LatLon0.15_PT040H.grib2 2026-04-28 04:52 2.0M
20260428T00Z_MSC_GDPS_O3_EAtm_LatLon0.15_PT040H.grib2 2026-04-28 04:52 2.5M
20260428T00Z_MSC_GDPS_PlanetaryBoundaryLayerHeight_Sfc_LatLon0.15_PT040H.grib2 2026-04-28 03:59 2.5M
20260428T00Z_MSC_GDPS_Precip-Accum1h_Sfc_LatLon0.15_PT040H.grib2 2026-04-28 03:59 3.3M
20260428T00Z_MSC_GDPS_Precip-Accum_Sfc_LatLon0.15_PT040H.grib2 2026-04-28 03:59 4.8M
20260428T00Z_MSC_GDPS_PrecipRate_Sfc_LatLon0.15_PT040H.grib2 2026-04-28 03:59 3.2M
20260428T00Z_MSC_GDPS_Pressure_MSL_LatLon0.15_PT040H.grib2 2026-04-28 03:59 729K
20260428T00Z_MSC_GDPS_Pressure_Sfc_LatLon0.15_PT040H.grib2 2026-04-28 03:59 1.1M
20260428T00Z_MSC_GDPS_RadiativeTemp_Sfc_LatLon0.15_PT040H.grib2 2026-04-28 03:59 490K
20260428T00Z_MSC_GDPS_Rain-Accum1h_Sfc_LatLon0.15_PT040H.grib2 2026-04-28 03:59 1.7M
20260428T00Z_MSC_GDPS_Rain-Accum_Sfc_LatLon0.15_PT040H.grib2 2026-04-28 03:59 3.6M
20260428T00Z_MSC_GDPS_RelativeHumidity_AGL-2m_LatLon0.15_PT040H.grib2 2026-04-28 03:59 1.1M
20260428T00Z_MSC_GDPS_Runoff-Accum_Sfc_LatLon0.15_PT040H.grib2 2026-04-28 03:59 115K
20260428T00Z_MSC_GDPS_SensibleHeatNetFlux_Sfc_LatLon0.15_PT040H.grib2 2026-04-28 03:59 473K
20260428T00Z_MSC_GDPS_Snow-Accum1h_Sfc_LatLon0.15_PT040H.grib2 2026-04-28 03:59 1.1M
20260428T00Z_MSC_GDPS_Snow-Accum_Sfc_LatLon0.15_PT040H.grib2 2026-04-28 03:59 2.0M
20260428T00Z_MSC_GDPS_SnowDepth_Sfc_LatLon0.15_PT040H.grib2 2026-04-28 03:59 1.7M
20260428T00Z_MSC_GDPS_SoilTemp_DBS-0to10cm_LatLon0.15_PT040H.grib2 2026-04-28 03:59 503K
20260428T00Z_MSC_GDPS_SoilTemp_Sfc_LatLon0.15_PT040H.grib2 2026-04-28 03:59 583K
20260428T00Z_MSC_GDPS_SoilVolumetricWaterContent_DBS-0to10cm_LatLon0.15_PT040H.grib2 2026-04-28 03:59 580K
20260428T00Z_MSC_GDPS_SoilVolumetricWaterContent_DBS-0to1cm_LatLon0.15_PT040H.grib2 2026-04-28 03:59 645K
20260428T00Z_MSC_GDPS_SpecificHumidity_AGL-120m_LatLon0.15_PT040H.grib2 2026-04-28 03:59 1.1M
20260428T00Z_MSC_GDPS_SpecificHumidity_AGL-2m_LatLon0.15_PT040H.grib2 2026-04-28 03:59 1.2M
20260428T00Z_MSC_GDPS_SpecificHumidity_AGL-40m_LatLon0.15_PT040H.grib2 2026-04-28 03:59 1.1M
20260428T00Z_MSC_GDPS_SpecificHumidity_AGL-80m_LatLon0.15_PT040H.grib2 2026-04-28 03:59 1.1M
20260428T00Z_MSC_GDPS_SpecificHumidity_Sfc_LatLon0.15_PT040H.grib2 2026-04-28 03:59 667K
20260428T00Z_MSC_GDPS_TotalCloudCover_Sfc_LatLon0.15_PT040H.grib2 2026-04-28 03:59 827K
20260428T00Z_MSC_GDPS_UVIndex-ClearSky_Sfc_LatLon0.15_PT040H.grib2 2026-04-28 04:52 1.1M
20260428T00Z_MSC_GDPS_UVIndex_Sfc_LatLon0.15_PT040H.grib2 2026-04-28 04:52 1.5M
20260428T00Z_MSC_GDPS_UpwardLongwaveRadiationFlux_NTAtm_LatLon0.15_PT040H.grib2 2026-04-28 03:59 842K
20260428T00Z_MSC_GDPS_WindDir_AGL-10m_LatLon0.15_PT040H.grib2 2026-04-28 03:59 1.3M
20260428T00Z_MSC_GDPS_WindDir_AGL-120m_LatLon0.15_PT040H.grib2 2026-04-28 03:59 1.4M
20260428T00Z_MSC_GDPS_WindDir_AGL-40m_LatLon0.15_PT040H.grib2 2026-04-28 03:59 1.4M
20260428T00Z_MSC_GDPS_WindDir_AGL-80m_LatLon0.15_PT040H.grib2 2026-04-28 03:59 1.4M
20260428T00Z_MSC_GDPS_WindDir_IsbL-0700_LatLon0.15_PT040H.grib2 2026-04-28 03:59 1.6M
20260428T00Z_MSC_GDPS_WindGust-Max_AGL-10m_LatLon0.15_PT040H.grib2 2026-04-28 03:59 2.2M
20260428T00Z_MSC_GDPS_WindGust-Min_AGL-10m_LatLon0.15_PT040H.grib2 2026-04-28 03:59 2.1M
20260428T00Z_MSC_GDPS_WindGust_AGL-10m_LatLon0.15_PT040H.grib2 2026-04-28 03:59 2.1M
20260428T00Z_MSC_GDPS_WindSpeed_AGL-10m_LatLon0.15_PT040H.grib2 2026-04-28 03:59 1.1M
20260428T00Z_MSC_GDPS_WindSpeed_AGL-120m_LatLon0.15_PT040H.grib2 2026-04-28 03:59 1.3M
20260428T00Z_MSC_GDPS_WindSpeed_AGL-40m_LatLon0.15_PT040H.grib2 2026-04-28 03:59 1.3M
20260428T00Z_MSC_GDPS_WindSpeed_AGL-80m_LatLon0.15_PT040H.grib2 2026-04-28 03:59 1.3M
20260428T00Z_MSC_GDPS_WindSpeed_IsbL-0700_LatLon0.15_PT040H.grib2 2026-04-28 03:59 1.5M
20260428T00Z_MSC_GDPS_WindU_AGL-10m_LatLon0.15_PT040H.grib2 2026-04-28 03:59 1.3M
20260428T00Z_MSC_GDPS_WindU_AGL-120m_LatLon0.15_PT040H.grib2 2026-04-28 03:59 1.0M
20260428T00Z_MSC_GDPS_WindU_AGL-40m_LatLon0.15_PT040H.grib2 2026-04-28 03:59 1.0M
20260428T00Z_MSC_GDPS_WindU_AGL-80m_LatLon0.15_PT040H.grib2 2026-04-28 03:59 1.0M
20260428T00Z_MSC_GDPS_WindU_IsbL-0700_LatLon0.15_PT040H.grib2 2026-04-28 03:59 1.2M
20260428T00Z_MSC_GDPS_WindV_AGL-10m_LatLon0.15_PT040H.grib2 2026-04-28 03:59 1.3M
20260428T00Z_MSC_GDPS_WindV_AGL-120m_LatLon0.15_PT040H.grib2 2026-04-28 03:59 1.0M
20260428T00Z_MSC_GDPS_WindV_AGL-40m_LatLon0.15_PT040H.grib2 2026-04-28 03:59 1.0M
20260428T00Z_MSC_GDPS_WindV_AGL-80m_LatLon0.15_PT040H.grib2 2026-04-28 03:59 1.0M
20260428T00Z_MSC_GDPS_WindV_IsbL-0700_LatLon0.15_PT040H.grib2 2026-04-28 03:59 1.2M